User: anonymous   Login
Location: Unspecified
(0.0000°N, 0.0000°E)
Time: 09:29:00
(UTC+00:00)
Language:

ESSA 4 - Orbit

View from above orbital plane
View from above orbital plane
View from above satellite
View from above satellite

Ground track
Ground track

The orbit data is extracted from the following two-line orbital elements,

1  2657U 67006A   17295.91958461 -.00000056 +00000-0 -34306-4 0  9999
2  2657 102.0836 313.6118 0073375 008.7315 056.9454 12.69837763351536
Epoch (UTC): 22 October 2017 22:04:12
Eccentricity: 0.0073375
inclination: 102.0836°
perigee height: 1325 km
apogee height: 1439 km
right ascension of ascending node: 313.6118°
argument of perigee: 8.7315°
revolutions per day: 12.69837763
mean anomaly at epoch: 56.9454°
orbit number at epoch: 35153

The dashed part of the orbit path shows where the satellite is in the earth's shadow,  

DLR